When you browse on this site, cookies collect data to enhance your experience and personalize the content and advertising you see.
Visit our Privacy Policy to learn more. By continuing to use the site, you agree to this use of cookies and data.
  • In Hungary
  • List of Countries
  • For 7 days
  • Water Temperature
  • Satellite Maps
  • Weather Map
  • News
  • Weather Widgets
  • user-avatar
    Login

    Hourly Weather Bristol

    Today, 22 February, Friday

    Time Temperature Precipitation Wind Pressure Humidity
    00:00 +7°C° 0 mm 3 mps 772 mmHg 91%
    01:00 +5°C° 0 mm 3 mps 771 mmHg 91%
    02:00 +6°C° 0 mm 2 mps 771 mmHg 91%
    03:00 +6°C° 0 mm 2 mps 771 mmHg 91%
    04:00 +6°C° 0 mm 2 mps 771 mmHg 91%
    05:00 +5°C° 0 mm 3 mps 772 mmHg 91%
    06:00 +5°C° 0 mm 2 mps 773 mmHg 91%
    07:00 +6°C° 0 mm 2 mps 773 mmHg 89%
    08:00 +7°C° 0 mm 3 mps 773 mmHg 87%
    09:00 +7°C° 0 mm 3 mps 773 mmHg 85%
    10:00 +9°C° 0 mm 3 mps 773 mmHg 81%
    11:00 +11°C° 0 mm 3 mps 773 mmHg 77%
    12:00 +12°C° 0 mm 4 mps 773 mmHg 73%
    13:00 +13°C° 0 mm 4 mps 773 mmHg 72%
    14:00 +13°C° 0 mm 4 mps 773 mmHg 71%
    15:00 +13°C° 0 mm 4 mps 773 mmHg 69%
    16:00 +12°C° 0 mm 4 mps 773 mmHg 75%
    17:00 +10°C° 0 mm 4 mps 773 mmHg 81%
    18:00 +8°C° 0 mm 3 mps 772 mmHg 86%
    19:00 +7°C° 0 mm 4 mps 772 mmHg 85%
    20:00 +6°C° 0 mm 4 mps 773 mmHg 83%
    21:00 +6°C° 0 mm 4 mps 773 mmHg 81%
    22:00 +6°C° 0 mm 4 mps 772 mmHg 81%
    23:00 +6°C° 0 mm 4 mps 772 mmHg 81%

    Tomorrow, 23 February, Saturday

    Time Temperature Precipitation Wind Pressure Humidity
    00:00 +6°C° 0 mm 4 mps 772 mmHg 81%
    01:00 +6°C° 0 mm 4 mps 772 mmHg 84%
    02:00 +6°C° 0 mm 4 mps 772 mmHg 88%
    03:00 +7°C° 0 mm 4 mps 771 mmHg 91%
    04:00 +7°C° 0 mm 4 mps 771 mmHg 91%
    05:00 +7°C° 0 mm 4 mps 771 mmHg 92%
    06:00 +7°C° 0 mm 4 mps 771 mmHg 93%
    07:00 +8°C° 0 mm 4 mps 771 mmHg 91%
    08:00 +8°C° 0 mm 4 mps 772 mmHg 90%
    09:00 +10°C° 0 mm 4 mps 772 mmHg 88%
    10:00 +11°C° 0 mm 4 mps 772 mmHg 85%
    11:00 +13°C° 0 mm 5 mps 772 mmHg 81%
    12:00 +14°C° 0 mm 5 mps 772 mmHg 77%
    13:00 +14°C° 0 mm 4 mps 772 mmHg 77%
    14:00 +14°C° 0 mm 4 mps 771 mmHg 76%
    15:00 +15°C° 0 mm 4 mps 771 mmHg 76%
    16:00 +13°C° 0 mm 3 mps 771 mmHg 81%
    17:00 +11°C° 0 mm 3 mps 772 mmHg 85%
    18:00 +10°C° 0 mm 2 mps 772 mmHg 90%
    19:00 +9°C° 0 mm 2 mps 772 mmHg 90%
    20:00 +9°C° 0 mm 2 mps 772 mmHg 90%
    21:00 +8°C° 0 mm 2 mps 773 mmHg 90%
    22:00 +8°C° 0 mm 2 mps 773 mmHg 89%
    23:00 +8°C° 0 mm 2 mps 773 mmHg 88%

    Day after tomorrow, 24 February, Sunday

    Time Temperature Precipitation Wind Pressure Humidity
    00:00 +8°C° 0 mm 2 mps 773 mmHg 87%
    01:00 +7°C° 0 mm 2 mps 773 mmHg 88%
    02:00 +7°C° 0 mm 2 mps 773 mmHg 89%
    03:00 +6°C° 0 mm 2 mps 773 mmHg 90%
    04:00 +6°C° 0 mm 2 mps 773 mmHg 91%
    05:00 +6°C° 0 mm 2 mps 773 mmHg 91%
    06:00 +6°C° 0 mm 2 mps 773 mmHg 91%
    07:00 +6°C° 0 mm 2 mps 773 mmHg 88%
    08:00 +7°C° 0 mm 2 mps 774 mmHg 86%
    09:00 +8°C° 0 mm 2 mps 774 mmHg 83%
    10:00 +9°C° 0 mm 2 mps 774 mmHg 77%
    11:00 +12°C° 0 mm 2 mps 774 mmHg 72%
    12:00 +14°C° 0 mm 2 mps 774 mmHg 66%
    13:00 +14°C° 0 mm 2 mps 774 mmHg 65%
    14:00 +15°C° 0 mm 2 mps 774 mmHg 64%
    15:00 +15°C° 0 mm 2 mps 774 mmHg 63%
    16:00 +13°C° 0 mm 2 mps 774 mmHg 69%
    17:00 +12°C° 0 mm 2 mps 774 mmHg 75%
    18:00 +9°C° 0 mm 2 mps 775 mmHg 81%
    19:00 +8°C° 0 mm 2 mps 775 mmHg 81%
    20:00 +7°C° 0 mm 2 mps 775 mmHg 82%
    21:00 +6°C° 0 mm 2 mps 775 mmHg 82%
    22:00 +6°C° 0 mm 2 mps 775 mmHg 81%
    23:00 +6°C° 0 mm 1 mps 776 mmHg 79%

    25 February, Monday

    Time Temperature Precipitation Wind Pressure Humidity
    00:00 +6°C° 0 mm 1 mps 776 mmHg 78%
    01:00 +5°C° 0 mm 1 mps 776 mmHg 76%
    02:00 +5°C° 0 mm 1 mps 776 mmHg 75%
    03:00 +4°C° 0 mm 2 mps 775 mmHg 74%
    04:00 +4°C° 0 mm 2 mps 775 mmHg 75%
    05:00 +4°C° 0 mm 2 mps 775 mmHg 77%
    06:00 +4°C° 0 mm 2 mps 775 mmHg 79%
    07:00 +6°C° 0 mm 1 mps 776 mmHg 77%
    08:00 +7°C° 0 mm 1 mps 776 mmHg 75%
    09:00 +8°C° 0 mm 1 mps 776 mmHg 73%
    10:00 +9°C° 0 mm 1 mps 776 mmHg 69%
    11:00 +10°C° 0 mm 2 mps 776 mmHg 64%
    12:00 +13°C° 0 mm 2 mps 776 mmHg 60%
    13:00 +14°C° 0 mm 2 mps 776 mmHg 60%
    14:00 +14°C° 0 mm 2 mps 775 mmHg 60%
    15:00 +15°C° 0 mm 2 mps 775 mmHg 61%
    16:00 +14°C° 0 mm 2 mps 775 mmHg 67%
    17:00 +12°C° 0 mm 2 mps 775 mmHg 74%
    18:00 +9°C° 0 mm 2 mps 775 mmHg 80%
    19:00 +9°C° 0 mm 2 mps 775 mmHg 80%
    20:00 +8°C° 0 mm 2 mps 775 mmHg 80%
    21:00 +7°C° 0 mm 2 mps 775 mmHg 81%
    22:00 +6°C° 0 mm 2 mps 775 mmHg 80%
    23:00 +6°C° 0 mm 2 mps 775 mmHg 80%

    26 February, Tuesday

    Time Temperature Precipitation Wind Pressure Humidity
    00:00 +7°C° 0 mm 1 mps 775 mmHg 79%
    01:00 +5°C° 0 mm 2 mps 774 mmHg 80%
    02:00 +5°C° 0 mm 2 mps 774 mmHg 81%
    03:00 +5°C° 0 mm 2 mps 774 mmHg 82%
    04:00 +5°C° 0 mm 2 mps 774 mmHg 83%
    05:00 +5°C° 0 mm 2 mps 773 mmHg 83%
    06:00 +4°C° 0 mm 3 mps 773 mmHg 83%
    07:00 +5°C° 0 mm 3 mps 773 mmHg 81%
    08:00 +7°C° 0 mm 3 mps 773 mmHg 78%
    09:00 +8°C° 0 mm 3 mps 773 mmHg 75%
    10:00 +10°C° 0 mm 4 mps 773 mmHg 72%
    11:00 +12°C° 0 mm 4 mps 773 mmHg 69%
    12:00 +13°C° 0 mm 4 mps 772 mmHg 65%
    13:00 +13°C° 0 mm 4 mps 772 mmHg 66%
    14:00 +14°C° 0 mm 4 mps 771 mmHg 66%
    15:00 +14°C° 0 mm 4 mps 771 mmHg 66%
    16:00 +12°C° 0 mm 4 mps 771 mmHg 73%
    17:00 +10°C° 0 mm 3 mps 771 mmHg 80%
    18:00 +9°C° 0 mm 3 mps 771 mmHg 87%
    19:00 +8°C° 0 mm 2 mps 771 mmHg 89%
    20:00 +7°C° 0 mm 2 mps 771 mmHg 90%
    21:00 +6°C° 0 mm 2 mps 771 mmHg 92%
    22:00 +6°C° 0 mm 2 mps 771 mmHg 93%
    23:00 +7°C° 0 mm 1 mps 771 mmHg 93%

    27 February, Wednesday

    Time Temperature Precipitation Wind Pressure Humidity
    00:00 +7°C° 0 mm 1 mps 771 mmHg 94%
    01:00 +7°C° 0 mm 1 mps 770 mmHg 95%
    02:00 +7°C° 0 mm 1 mps 770 mmHg 95%
    03:00 +7°C° 0 mm 1 mps 770 mmHg 95%
    04:00 +7°C° 0 mm 1 mps 770 mmHg 96%
    05:00 +7°C° 0 mm 1 mps 770 mmHg 96%
    06:00 +7°C° 0 mm 1 mps 770 mmHg 96%
    07:00 +8°C° 0 mm 1 mps 769 mmHg 94%
    08:00 +9°C° 0 mm 1 mps 769 mmHg 92%
    09:00 +10°C° 0 mm 1 mps 769 mmHg 90%
    10:00 +12°C° 0 mm 2 mps 769 mmHg 84%
    11:00 +14°C° 0 mm 2 mps 769 mmHg 77%
    12:00 +16°C° 0 mm 2 mps 769 mmHg 70%
    13:00 +16°C° 0 mm 2 mps 768 mmHg 69%
    14:00 +16°C° 0 mm 3 mps 768 mmHg 68%
    15:00 +17°C° 0 mm 3 mps 768 mmHg 68%
    16:00 +14°C° 0 mm 3 mps 767 mmHg 74%
    17:00 +13°C° 0 mm 2 mps 767 mmHg 80%
    18:00 +10°C° 0 mm 2 mps 767 mmHg 87%
    19:00 +9°C° 0 mm 2 mps 767 mmHg 87%
    20:00 +9°C° 0 mm 2 mps 767 mmHg 87%
    21:00 +8°C° 0 mm 2 mps 767 mmHg 87%
    22:00 +7°C° 0 mm 2 mps 767 mmHg 88%
    23:00 +7°C° 0 mm 2 mps 767 mmHg 88%
    Show more